Weather History for KFRM - March, 2013

Change the Weather History Date:

Thursday, March 21, 2013

  Actual Average Record
Temperature  
Mean Temperature 19 °F -  
Max Temperature 30 °F 42 °F 67 °F (1953)
Min Temperature 8 °F 25 °F -5 °F (1951)
Degree Days  
Heating Degree Days 46    
Moisture  
Dew Point 7 °F    
Average Humidity 56    
Maximum Humidity 73    
Minimum Humidity 43    
Precipitation  
Precipitation 0.00 in - - ()
Sea Level Pressure  
Sea Level Pressure 30.08 in    
Wind  
Wind Speed - (North)    
Max Wind Speed -    
Max Gust Speed -    
Visibility 10 miles    
Events      
Averages and records for this station are not official NWS values.
T = Trace of Precipitation, MM = Missing Value Source: NWS Daily Summary

Daily Weather History Graph

Daily Weather History Graph

Search for Another Location

Airport or City:

Trip Planner

Search our weather history database for the weather conditions in past years. The results will help you decide how hot, cold, wet, or windy it might be!

Date:

Astronomy

Mar. 21, 2013 Rise Set
Actual Time 7:18 AM CDT 7:31 PM CDT
Civil Twilight 6:49 AM CDT 8:00 PM CDT
Nautical Twilight 6:16 AM CDT 8:33 PM CDT
Astronomical Twilight 5:42 AM CDT 9:08 PM CDT
Moon 1:53 PM CDT (3/21) 3:50 AM CDT (3/21)
Length of Visible Light 13h 10m
Length of Day
12h 13m
Waxing Gibbous, 69% of the Moon is Illuminated
Mar 21
Waxing Gibbous
Mar 27
Full
Apr 2
Last Quarter
Apr 10
New
Apr 18
First Quarter

Hourly Weather History & Observations

Time (CDT) Temp. Dew Point Humidity Pressure Visibility Wind Dir Wind Speed Gust Speed Precip Events Conditions
12:35 AM 15.8 °F 1.4 °F 53% 30.14 in 10.0 mi North - - N/A   Clear
1:15 AM 14.0 °F 3.2 °F 62% 30.14 in 10.0 mi North - - N/A   Clear
1:35 AM 14.0 °F 3.2 °F 62% 30.13 in 10.0 mi North - - N/A   Clear
1:55 AM 12.2 °F 3.2 °F 67% 30.12 in 10.0 mi North - - N/A   Clear
2:15 AM 12.2 °F 3.2 °F 67% 30.12 in 10.0 mi North - - N/A   Clear
2:35 AM 12.2 °F 3.2 °F 67% 30.12 in 10.0 mi North - - N/A   Clear
2:55 AM 12.2 °F 3.2 °F 67% 30.11 in 10.0 mi North - - N/A   Clear
3:15 AM 12.2 °F 3.2 °F 67% 30.11 in 10.0 mi North - - N/A   Clear
3:35 AM 10.4 °F 1.4 °F 67% 30.11 in 10.0 mi North - - N/A   Clear
3:55 AM 10.4 °F 3.2 °F 73% 30.10 in 10.0 mi North - - N/A   Clear
4:15 AM 10.4 °F 1.4 °F 67% 30.10 in 10.0 mi North - - N/A   Clear
4:35 AM 10.4 °F 1.4 °F 67% 30.10 in 10.0 mi North - - N/A   Clear
4:55 AM 10.4 °F 3.2 °F 73% 30.09 in 10.0 mi North - - N/A   Clear
5:15 AM 10.4 °F 3.2 °F 73% 30.08 in 10.0 mi North - - N/A   Clear
5:35 AM 10.4 °F 1.4 °F 67% 30.08 in 10.0 mi North - - N/A   Clear
5:55 AM 10.4 °F 1.4 °F 67% 30.08 in 10.0 mi North - - N/A   Clear
6:15 AM 10.4 °F 1.4 °F 67% 30.09 in 10.0 mi North - - N/A   Clear
6:35 AM 10.4 °F 3.2 °F 73% 30.09 in 10.0 mi North - - N/A   Clear
6:55 AM 8.6 °F 1.4 °F 73% 30.09 in 10.0 mi North - - N/A   Clear
7:15 AM 8.6 °F 1.4 °F 73% 30.09 in 10.0 mi North - - N/A   Clear
7:55 AM 10.4 °F 3.2 °F 73% 30.10 in 10.0 mi North - - N/A   Clear
8:15 AM 12.2 °F 3.2 °F 67% 30.10 in 10.0 mi North - - N/A   Clear
8:35 AM 12.2 °F 1.4 °F 62% 30.09 in 10.0 mi North - - N/A   Clear
8:55 AM 15.8 °F 3.2 °F 58% 30.10 in 10.0 mi North - - N/A   Clear
9:15 AM 15.8 °F 3.2 °F 58% 30.10 in 10.0 mi North - - N/A   Clear
9:35 AM 17.6 °F 3.2 °F 53% 30.10 in 10.0 mi North - - N/A   Clear
9:55 AM 17.6 °F 1.4 °F 49% 30.10 in 10.0 mi North - - N/A   Clear
10:15 AM 19.4 °F 3.2 °F 49% 30.10 in 10.0 mi North - - N/A   Clear
10:35 AM 19.4 °F 3.2 °F 49% 30.10 in 10.0 mi North - - N/A   Clear
10:55 AM 19.4 °F 5.0 °F 54% 30.10 in 10.0 mi North - - N/A   Clear
11:15 AM 21.2 °F 3.2 °F 46% 30.10 in 10.0 mi North - - N/A   Clear
11:35 AM 21.2 °F 5.0 °F 50% 30.10 in 10.0 mi North - - N/A   Clear
11:55 AM 21.2 °F 6.8 °F 54% 30.10 in 10.0 mi North - - N/A   Clear
12:15 PM 23.0 °F 5.0 °F 46% 30.09 in 10.0 mi North - - N/A   Clear
12:35 PM 24.8 °F 8.6 °F 50% 30.08 in 10.0 mi North - - N/A   Clear
12:55 PM 24.8 °F 6.8 °F 46% 30.08 in 10.0 mi North - - N/A   Clear
1:15 PM 24.8 °F 6.8 °F 46% 30.07 in 10.0 mi North - - N/A   Clear
1:35 PM 26.6 °F 10.4 °F 51% 30.06 in 10.0 mi North - - N/A   Clear
1:55 PM 28.4 °F 8.6 °F 43% 30.06 in 10.0 mi North - - N/A   Clear
2:15 PM 26.6 °F 8.6 °F 47% 30.05 in 10.0 mi North - - N/A   Clear
2:35 PM 28.4 °F 8.6 °F 43% 30.05 in 10.0 mi North - - N/A   Clear
2:55 PM 30.2 °F 10.4 °F 44% 30.04 in 10.0 mi North - - N/A   Clear
3:15 PM 30.2 °F 10.4 °F 44% 30.04 in 10.0 mi North - - N/A   Clear
3:35 PM 28.4 °F 8.6 °F 43% 30.04 in 10.0 mi North - - N/A   Clear
3:55 PM 28.4 °F 10.4 °F 47% 30.04 in 10.0 mi North - - N/A   Clear
4:15 PM 30.2 °F 12.2 °F 47% 30.03 in 10.0 mi North - - N/A   Clear
4:35 PM 30.2 °F 10.4 °F 44% 30.03 in 10.0 mi North - - N/A   Clear
4:55 PM 30.2 °F 10.4 °F 44% 30.03 in 10.0 mi North - - N/A   Clear
5:15 PM 28.4 °F 10.4 °F 47% 30.03 in 10.0 mi North - - N/A   Clear
5:35 PM 28.4 °F 12.2 °F 51% 30.03 in 10.0 mi North - - N/A   Clear
5:55 PM 28.4 °F 12.2 °F 51% 30.03 in 10.0 mi North - - N/A   Clear
6:15 PM 28.4 °F 12.2 °F 51% 30.03 in 10.0 mi North - - N/A   Clear
6:35 PM 28.4 °F 12.2 °F 51% 30.03 in 10.0 mi North - - N/A   Clear
6:55 PM 28.4 °F 12.2 °F 51% 30.04 in 10.0 mi North - - N/A   Clear
7:15 PM 28.4 °F 10.4 °F 47% 30.04 in 10.0 mi North - - N/A   Clear
7:35 PM 28.4 °F 10.4 °F 47% 30.04 in 10.0 mi North - - N/A   Clear
7:55 PM 26.6 °F 12.2 °F 55% 30.04 in 10.0 mi North - - N/A   Clear
8:15 PM 26.6 °F 12.2 °F 55% 30.04 in 10.0 mi North - - N/A   Clear
8:35 PM 26.6 °F 12.2 °F 55% 30.05 in 10.0 mi North - - N/A   Clear
8:55 PM 26.6 °F 12.2 °F 55% 30.05 in 10.0 mi North - - N/A   Clear
9:15 PM 26.6 °F 12.2 °F 55% 30.05 in 10.0 mi North - - N/A   Clear
9:35 PM 26.6 °F 12.2 °F 55% 30.06 in 10.0 mi North - - N/A   Clear
9:55 PM 26.6 °F 12.2 °F 55% 30.06 in 10.0 mi North - - N/A   Clear
10:15 PM 26.6 °F 12.2 °F 55% 30.06 in 10.0 mi North - - N/A   Clear
10:35 PM 26.6 °F 12.2 °F 55% 30.07 in 10.0 mi North - - N/A   Clear
10:55 PM 26.6 °F 12.2 °F 55% 30.07 in 10.0 mi North - - N/A   Clear
11:15 PM 26.6 °F 14.0 °F 59% 30.08 in 10.0 mi North - - N/A   Clear
11:35 PM 24.8 °F 12.2 °F 59% 30.08 in 10.0 mi North - - N/A   Clear
11:55 PM 24.8 °F 14.0 °F 64% 30.08 in 10.0 mi North - - N/A   Clear